Regional Weather Roundup
Issued by NWS Goodland, KS

Home | Current Version | Previous Version | Graphics & Text | Print | Product List | Glossary On
Versions: 1 2 3 4 5 6 7 8 9 10 11 12 13 14 15 16 17 18 19 20 21 22 23 24 25 26 27 28 29 30 31 32 33 34 35 36 37 38 39 40 41 42 43 44 45 46 47 48 49 50
000
ASUS43 KGLD 190608
RWRGLD

GOODLAND FORECAST AREA HOURLY WEATHER ROUNDUP
NATIONAL WEATHER SERVICE GOODLAND KS
1200 AM MDT THU OCT 19 2017

...OFFICIAL OBSERVATIONS...

CITY           SKY/WX    TMP DP  RH WIND       PRES   REMARKS
GOODLAND KS    CLEAR     44  34  67 S9        30.11S
HILL CITY KS   CLEAR     45  38  76 W3        30.08F
IMPERIAL NEB   CLEAR     47  33  58 S3        30.10S
MCCOOK NEB     CLEAR     46  35  65 CALM      30.09S
AKRON CO       CLEAR     50  28  42 S15       30.12F
BURLINGTON CO  CLOUDY    45  33  63 S10       30.13F
LIMON CO       CLOUDY    31  26  82 CALM      30.18F
$$

...UNOFFICIAL OBSERVATIONS...

CITY           SKY/WX    TMP DP  RH WIND       PRES   REMARKS
LENORA KS        N/A     49  32  52 MISG        N/A
NORTON KS      CLEAR     43  30  61 CALM      30.07S
SHARON SPRINGS   N/A     50  35  57 CALM        N/A
TRIBUNE KS     CLOUDY    50  36  57 N6        30.13
TRENTON NEB      N/A     47  32  56 CALM        N/A
YUMA CO        FAIR      36  30  80 S7        30.12S
$$




USA.gov is the U.S. government's official web portal to all federal, state and local government web resources and services.